Weather in Novopeschanoye

Russia / Novosibirsk Oblast     54°50′26″N   76°41′59″E
temp.,
°C
wind,
m/s
gust,
m/s
humid.,
%
clouds,
%
prec.,
mm/h
press.,
hPa
HPBL,
m
27 february, sat
sat2701:00−29sw459896 0.0 103568
04:00−28sw4597100 0.0 1035126
07:00−31sw349883 0.0 103522
10:00−31sw349730 0.0 103654
13:00−27ssw349341 0.0 1036224
16:00−25ssw359361 0.0 1036250
19:00−28s349639 0.0 103624
22:00−29s45960 0.0 103637
28 february, sun
sun2801:00−29s459720 0.0 103437
04:00−29sse459915 0.0 103357
07:00−27se579655 0.0 1031127
10:00−24se61091100 0.0 1029253
13:00−21se6992100 0.0 1026303
16:00−17se71095100 0.1 1022363
19:00−15ese71194100 0.5 1019438
22:00−12e71094100 0.3 1015262
1 march, mon
mon101:00−9e71195100 0.9 1010276
04:00−7e71195100 2.0 1006262
07:00−6ene61095100 3.1 1004230
10:00−7ne5795100 1.0 1005243
13:00−7nne4694100 1.8 1007258
16:00−8nne4594100 0.4 1009289
19:00−10n469599 0.8 1011232
22:00−14nnw349688 0.2 101425
2 march, tue
tue201:00−17nnw239772 0.2 101720
04:00−18nnw1210075 0.0 101820
07:00−16wsw129685 0.1 101827
10:00−17wsw119683 0.1 101820
13:00−15ssw229189 0.1 1018233
16:00−13ssw1189100 0.0 1017266
19:00−16se1196100 0.0 101620
22:00−15ese1296100 0.1 101520
3 march, wed
wed301:00−15se0096100 0.4 101520
04:00−15n1196100 0.3 101420
07:00−15nnw1196100 0.7 101420
10:00−15nw1296100 0.3 101547
13:00−13wnw228998 0.4 1016315
16:00−11w3487100 0.1 1017490
19:00−14wsw3495100 0.1 101934
22:00−17wsw339789 0.0 102121